Location: Bodest
(46.3000°N, 22.5667°E)
Time: 20:13:04
(UTC+00:00)

Aureole 2 - Pass Details

Date: 16 October 2021
Orbit: 365 x 885 km, 73.9° (Epoch: 29 November)

Event Time Altitude Azimuth Distance (km) Brightness Sun altitude
Rises 16:14:58 0° 337° (NNW) 2,223 8.2 -6.5°
Reaches altitude 10° 16:16:56 10° 337° (NNW) 1,372 7.1 -6.9°
Maximum altitude 16:19:53 84° 248° (WSW) 385 4.1 -7.4°
Drops below altitude 10° 16:22:58 10° 161° (SSE) 1,441 6.8 -7.9°
Sets 16:25:04 0° 161° (SSE) 2,350 7.9 -8.3°
